Year,Month,Day,Hour,Minute,Value (Times are PST for temperature in C)
2010,05,08,00,00,8.50
2010,05,08,00,01,8.40
2010,05,08,00,02,8.40
2010,05,08,00,03,8.30
2010,05,08,00,04,8.20
2010,05,08,00,05,8.20
2010,05,08,00,06,8.20
2010,05,08,00,07,8.20
2010,05,08,00,08,8.20
2010,05,08,00,09,8.10
2010,05,08,00,10,8.10
2010,05,08,00,11,8.10
2010,05,08,00,12,8.00
2010,05,08,00,13,8.00
2010,05,08,00,14,8.00
2010,05,08,00,15,7.90
2010,05,08,00,16,7.90
2010,05,08,00,17,7.90
2010,05,08,00,18,7.90
2010,05,08,00,19,7.80
2010,05,08,00,20,7.80
2010,05,08,00,21,7.80
2010,05,08,00,22,7.80
2010,05,08,00,23,7.80
2010,05,08,00,24,7.80
2010,05,08,00,25,7.80
2010,05,08,00,26,7.80
2010,05,08,00,27,7.80
2010,05,08,00,28,7.80
2010,05,08,00,29,7.70
2010,05,08,00,30,7.70
2010,05,08,00,31,7.70
2010,05,08,00,32,7.70
2010,05,08,00,33,7.70
2010,05,08,00,34,7.70
2010,05,08,00,35,7.70
2010,05,08,00,36,7.70
2010,05,08,00,37,7.60
2010,05,08,00,38,7.60
2010,05,08,00,39,7.60
2010,05,08,00,40,7.60
2010,05,08,00,41,7.60
2010,05,08,00,42,7.60
2010,05,08,00,43,7.70
2010,05,08,00,44,7.80
2010,05,08,00,45,7.80
2010,05,08,00,46,7.90
2010,05,08,00,47,7.90
2010,05,08,00,48,7.90
2010,05,08,00,49,7.90
2010,05,08,00,50,7.80
2010,05,08,00,51,7.80
2010,05,08,00,52,7.80
2010,05,08,00,53,7.70
2010,05,08,00,54,7.60
2010,05,08,00,55,7.60
2010,05,08,00,56,7.50
2010,05,08,00,57,7.50
2010,05,08,00,58,7.40
2010,05,08,00,59,7.40
2010,05,08,01,00,7.30
2010,05,08,01,01,7.30
2010,05,08,01,02,7.30
2010,05,08,01,03,7.30
2010,05,08,01,04,7.30
2010,05,08,01,05,7.30
2010,05,08,01,06,7.30
2010,05,08,01,07,7.30
2010,05,08,01,08,7.30
2010,05,08,01,09,7.20
2010,05,08,01,10,7.20
2010,05,08,01,11,7.20
2010,05,08,01,12,7.20
2010,05,08,01,13,7.20
2010,05,08,01,14,7.20
2010,05,08,01,15,7.20
2010,05,08,01,16,7.20
2010,05,08,01,17,7.30
2010,05,08,01,18,7.30
2010,05,08,01,19,7.30
2010,05,08,01,20,7.30
2010,05,08,01,21,7.30
2010,05,08,01,22,7.30
2010,05,08,01,23,7.30
2010,05,08,01,24,7.30
2010,05,08,01,25,7.30
2010,05,08,01,26,7.30
2010,05,08,01,27,7.30
2010,05,08,01,28,7.20
2010,05,08,01,29,7.20
2010,05,08,01,30,7.10
2010,05,08,01,31,7.10
2010,05,08,01,32,7.10
2010,05,08,01,33,7.00
2010,05,08,01,34,7.00
2010,05,08,01,35,6.90
2010,05,08,01,36,6.90
2010,05,08,01,37,6.80
2010,05,08,01,38,6.80
2010,05,08,01,39,6.80
2010,05,08,01,40,6.80
2010,05,08,01,41,6.80
2010,05,08,01,42,6.80
2010,05,08,01,43,6.80
2010,05,08,01,44,6.70
2010,05,08,01,45,6.70
2010,05,08,01,46,6.70
2010,05,08,01,47,6.80
2010,05,08,01,48,6.80
2010,05,08,01,49,6.80
2010,05,08,01,50,6.80
2010,05,08,01,51,6.90
2010,05,08,01,52,7.00
2010,05,08,01,53,7.10
2010,05,08,01,54,7.20
2010,05,08,01,55,7.30
2010,05,08,01,56,7.40
2010,05,08,01,57,7.50
2010,05,08,01,58,7.70
2010,05,08,01,59,7.80
2010,05,08,02,00,7.80
2010,05,08,02,01,7.90
2010,05,08,02,02,7.90
2010,05,08,02,03,7.90
2010,05,08,02,04,7.90
2010,05,08,02,05,7.90
2010,05,08,02,06,7.80
2010,05,08,02,07,7.90
2010,05,08,02,08,7.90
2010,05,08,02,09,7.90
2010,05,08,02,10,7.90
2010,05,08,02,11,7.90
2010,05,08,02,12,8.00
2010,05,08,02,13,8.00
2010,05,08,02,14,7.90
2010,05,08,02,15,7.90
2010,05,08,02,16,7.90
2010,05,08,02,17,7.80
2010,05,08,02,18,7.80
2010,05,08,02,19,7.70
2010,05,08,02,20,7.60
2010,05,08,02,21,7.60
2010,05,08,02,22,7.50
2010,05,08,02,23,7.40
2010,05,08,02,24,7.30
2010,05,08,02,25,7.30
2010,05,08,02,26,7.30
2010,05,08,02,27,7.30
2010,05,08,02,28,7.30
2010,05,08,02,29,7.30
2010,05,08,02,30,7.30
2010,05,08,02,31,7.30
2010,05,08,02,32,7.30
2010,05,08,02,33,7.20
2010,05,08,02,34,7.10
2010,05,08,02,35,7.10
2010,05,08,02,36,7.00
2010,05,08,02,37,7.00
2010,05,08,02,38,7.00
2010,05,08,02,39,7.00
2010,05,08,02,40,7.00
2010,05,08,02,41,7.00
2010,05,08,02,42,7.10
2010,05,08,02,43,7.10
2010,05,08,02,44,7.20
2010,05,08,02,45,7.30
2010,05,08,02,46,7.30
2010,05,08,02,47,7.40
2010,05,08,02,48,7.50
2010,05,08,02,49,7.60
2010,05,08,02,50,7.70
2010,05,08,02,51,7.80
2010,05,08,02,52,7.90
2010,05,08,02,53,7.90
2010,05,08,02,54,8.00
2010,05,08,02,55,8.10
2010,05,08,02,56,8.20
2010,05,08,02,57,8.30
2010,05,08,02,58,8.40
2010,05,08,02,59,8.50
2010,05,08,03,00,8.50
2010,05,08,03,01,8.60
2010,05,08,03,02,8.60
2010,05,08,03,03,8.60
2010,05,08,03,04,8.70
2010,05,08,03,05,8.70
2010,05,08,03,06,8.70
2010,05,08,03,07,8.70
2010,05,08,03,08,8.70
2010,05,08,03,09,8.80
2010,05,08,03,10,8.80
2010,05,08,03,11,8.80
2010,05,08,03,12,8.80
2010,05,08,03,13,8.80
2010,05,08,03,14,8.80
2010,05,08,03,15,8.80
2010,05,08,03,16,8.80
2010,05,08,03,17,8.90
2010,05,08,03,18,8.90
2010,05,08,03,19,8.90
2010,05,08,03,20,8.90
2010,05,08,03,21,8.90
2010,05,08,03,22,8.90
2010,05,08,03,23,8.90
2010,05,08,03,24,8.90
2010,05,08,03,25,8.80
2010,05,08,03,26,8.80
2010,05,08,03,27,8.80
2010,05,08,03,28,8.80
2010,05,08,03,29,8.80
2010,05,08,03,30,8.80
2010,05,08,03,31,8.80
2010,05,08,03,32,8.80
2010,05,08,03,33,8.80
2010,05,08,03,34,8.90
2010,05,08,03,35,8.90
2010,05,08,03,36,8.90
2010,05,08,03,37,8.90
2010,05,08,03,38,8.90
2010,05,08,03,39,8.90
2010,05,08,03,40,8.90
2010,05,08,03,41,8.80
2010,05,08,03,42,8.80
2010,05,08,03,43,8.80
2010,05,08,03,44,8.80
2010,05,08,03,45,8.80
2010,05,08,03,46,8.80
2010,05,08,03,47,8.80
2010,05,08,03,48,8.80
2010,05,08,03,49,8.90
2010,05,08,03,50,8.90
2010,05,08,03,51,8.90
2010,05,08,03,52,8.90
2010,05,08,03,53,8.90
2010,05,08,03,54,8.90
2010,05,08,03,55,8.90
2010,05,08,03,56,8.80
2010,05,08,03,57,8.80
2010,05,08,03,58,8.80
2010,05,08,03,59,8.80
2010,05,08,04,00,8.80
2010,05,08,04,01,8.80
2010,05,08,04,02,8.80
2010,05,08,04,03,8.90
2010,05,08,04,05,8.90
2010,05,08,04,07,8.90
2010,05,08,04,08,8.90
2010,05,08,04,09,8.80
2010,05,08,04,10,8.80
2010,05,08,04,11,8.80
2010,05,08,04,12,8.80
2010,05,08,04,13,8.80
2010,05,08,04,14,8.80
2010,05,08,04,15,8.80
2010,05,08,04,16,8.80
2010,05,08,04,17,8.70
2010,05,08,04,18,8.70
2010,05,08,04,19,8.70
2010,05,08,04,20,8.70
2010,05,08,04,21,8.70
2010,05,08,04,22,8.70
2010,05,08,04,23,8.70
2010,05,08,04,24,8.70
2010,05,08,04,25,8.70
2010,05,08,04,26,8.70
2010,05,08,04,27,8.70
2010,05,08,04,28,8.70
2010,05,08,04,29,8.70
2010,05,08,04,30,8.70
2010,05,08,04,31,8.70
2010,05,08,04,32,8.70
2010,05,08,04,33,8.70
2010,05,08,04,34,8.80
2010,05,08,04,35,8.80
2010,05,08,04,36,8.80
2010,05,08,04,37,8.80
2010,05,08,04,38,8.80
2010,05,08,04,39,8.80
2010,05,08,04,40,8.80
2010,05,08,04,41,8.80
2010,05,08,04,42,8.80
2010,05,08,04,43,8.70
2010,05,08,04,44,8.70
2010,05,08,04,45,8.70
2010,05,08,04,46,8.70
2010,05,08,04,47,8.70
2010,05,08,04,48,8.70
2010,05,08,04,49,8.70
2010,05,08,04,50,8.70
2010,05,08,04,51,8.60
2010,05,08,04,52,8.60
2010,05,08,04,53,8.60
2010,05,08,04,54,8.50
2010,05,08,04,55,8.50
2010,05,08,04,56,8.40
2010,05,08,04,57,8.40
2010,05,08,04,58,8.40
2010,05,08,04,59,8.30
2010,05,08,05,00,8.30
2010,05,08,05,01,8.20
2010,05,08,05,02,8.20
2010,05,08,05,03,8.20
2010,05,08,05,04,8.20
2010,05,08,05,05,8.20
2010,05,08,05,06,8.20
2010,05,08,05,07,8.20
2010,05,08,05,08,8.20
2010,05,08,05,09,8.20
2010,05,08,05,10,8.20
2010,05,08,05,11,8.20
2010,05,08,05,12,8.20
2010,05,08,05,13,8.20
2010,05,08,05,14,8.20
2010,05,08,05,15,8.20
2010,05,08,05,16,8.20
2010,05,08,05,17,8.20
2010,05,08,05,18,8.20
2010,05,08,05,19,8.20
2010,05,08,05,20,8.20
2010,05,08,05,21,8.20
2010,05,08,05,22,8.20
2010,05,08,05,23,8.20
2010,05,08,05,24,8.20
2010,05,08,05,25,8.20
2010,05,08,05,26,8.10
2010,05,08,05,27,8.10
2010,05,08,05,28,8.10
2010,05,08,05,29,8.00
2010,05,08,05,30,8.00
2010,05,08,05,31,8.10
2010,05,08,05,32,8.10
2010,05,08,05,33,8.10
2010,05,08,05,34,8.10
2010,05,08,05,35,8.10
2010,05,08,05,36,8.10
2010,05,08,05,37,8.10
2010,05,08,05,38,8.10
2010,05,08,05,39,8.10
2010,05,08,05,40,8.10
2010,05,08,05,41,8.00
2010,05,08,05,42,8.00
2010,05,08,05,43,8.00
2010,05,08,05,44,8.00
2010,05,08,05,45,8.00
2010,05,08,05,46,7.90
2010,05,08,05,47,7.90
2010,05,08,05,48,7.90
2010,05,08,05,49,7.80
2010,05,08,05,50,7.80
2010,05,08,05,51,7.80
2010,05,08,05,52,7.80
2010,05,08,05,53,7.80
2010,05,08,05,54,7.80
2010,05,08,05,55,7.80
2010,05,08,05,56,7.80
2010,05,08,05,57,7.80
2010,05,08,05,58,7.80
2010,05,08,05,59,7.80
2010,05,08,06,00,7.80
2010,05,08,06,01,7.80
2010,05,08,06,02,7.80
2010,05,08,06,03,7.80
2010,05,08,06,04,7.90
2010,05,08,06,05,7.90
2010,05,08,06,06,7.90
2010,05,08,06,07,7.90
2010,05,08,06,08,7.90
2010,05,08,06,09,8.00
2010,05,08,06,10,8.00
2010,05,08,06,11,8.00
2010,05,08,06,12,8.00
2010,05,08,06,13,8.10
2010,05,08,06,14,8.10
2010,05,08,06,15,8.10
2010,05,08,06,16,8.10
2010,05,08,06,17,8.10
2010,05,08,06,18,8.10
2010,05,08,06,19,8.20
2010,05,08,06,20,8.10
2010,05,08,06,21,8.10
2010,05,08,06,22,8.10
2010,05,08,06,23,8.10
2010,05,08,06,24,8.10
2010,05,08,06,25,8.10
2010,05,08,06,26,8.10
2010,05,08,06,27,8.10
2010,05,08,06,28,8.10
2010,05,08,06,29,8.10
2010,05,08,06,30,8.10
2010,05,08,06,31,8.10
2010,05,08,06,32,8.10
2010,05,08,06,33,8.10
2010,05,08,06,34,8.10
2010,05,08,06,35,8.10
2010,05,08,06,36,8.10
2010,05,08,06,37,8.20
2010,05,08,06,38,8.20
2010,05,08,06,39,8.20
2010,05,08,06,40,8.20
2010,05,08,06,41,8.30
2010,05,08,06,42,8.30
2010,05,08,06,43,8.40
2010,05,08,06,44,8.40
2010,05,08,06,45,8.50
2010,05,08,06,46,8.50
2010,05,08,06,47,8.50
2010,05,08,06,48,8.50
2010,05,08,06,49,8.60
2010,05,08,06,50,8.60
2010,05,08,06,51,8.60
2010,05,08,06,52,8.70
2010,05,08,06,53,8.70
2010,05,08,06,54,8.70
2010,05,08,06,55,8.70
2010,05,08,06,56,8.70
2010,05,08,06,57,8.70
2010,05,08,06,58,8.70
2010,05,08,06,59,8.70
2010,05,08,07,00,8.70
2010,05,08,07,01,8.70
2010,05,08,07,02,8.70
2010,05,08,07,03,8.70
2010,05,08,07,04,8.70
2010,05,08,07,05,8.70
2010,05,08,07,06,8.70
2010,05,08,07,07,8.70
2010,05,08,07,08,8.70
2010,05,08,07,09,8.70
2010,05,08,07,10,8.80
2010,05,08,07,11,8.80
2010,05,08,07,12,8.80
2010,05,08,07,13,8.90
2010,05,08,07,14,8.90
2010,05,08,07,15,8.90
2010,05,08,07,16,9.00
2010,05,08,07,17,9.00
2010,05,08,07,18,9.00
2010,05,08,07,19,9.00
2010,05,08,07,20,9.00
2010,05,08,07,21,9.00
2010,05,08,07,22,9.10
2010,05,08,07,23,9.10
2010,05,08,07,24,9.10
2010,05,08,07,25,9.10
2010,05,08,07,26,9.20
2010,05,08,07,27,9.20
2010,05,08,07,28,9.20
2010,05,08,07,29,9.20
2010,05,08,07,30,9.20
2010,05,08,07,31,9.20
2010,05,08,07,32,9.20
2010,05,08,07,33,9.20
2010,05,08,07,34,9.30
2010,05,08,07,35,9.30
2010,05,08,07,36,9.30
2010,05,08,07,37,9.40
2010,05,08,07,38,9.40
2010,05,08,07,39,9.50
2010,05,08,07,40,9.50
2010,05,08,07,41,9.50
2010,05,08,07,42,9.50
2010,05,08,07,43,9.60
2010,05,08,07,44,9.60
2010,05,08,07,45,9.60
2010,05,08,07,46,9.60
2010,05,08,07,47,9.60
2010,05,08,07,48,9.70
2010,05,08,07,49,9.70
2010,05,08,07,50,9.70
2010,05,08,07,51,9.70
2010,05,08,07,52,9.70
2010,05,08,07,53,9.70
2010,05,08,07,54,9.70
2010,05,08,07,55,9.70
2010,05,08,07,56,9.70
2010,05,08,07,57,9.80
2010,05,08,07,58,9.80
2010,05,08,07,59,9.80
2010,05,08,08,00,9.90
2010,05,08,08,01,9.90
2010,05,08,08,02,9.90
2010,05,08,08,03,9.90
2010,05,08,08,04,9.90
2010,05,08,08,05,9.90
2010,05,08,08,06,9.90
2010,05,08,08,07,9.90
2010,05,08,08,08,9.90
2010,05,08,08,09,10.00
2010,05,08,08,10,10.10
2010,05,08,08,11,10.10
2010,05,08,08,12,10.10
2010,05,08,08,13,10.10
2010,05,08,08,14,10.10
2010,05,08,08,15,10.10
2010,05,08,08,16,10.10
2010,05,08,08,17,10.10
2010,05,08,08,18,10.10
2010,05,08,08,19,10.10
2010,05,08,08,20,10.10
2010,05,08,08,21,10.10
2010,05,08,08,22,10.10
2010,05,08,08,23,10.10
2010,05,08,08,24,10.10
2010,05,08,08,25,10.10
2010,05,08,08,26,10.10
2010,05,08,08,27,10.10
2010,05,08,08,28,10.10
2010,05,08,08,29,10.10
2010,05,08,08,30,10.10
2010,05,08,08,31,10.10
2010,05,08,08,32,10.10
2010,05,08,08,33,10.10
2010,05,08,08,34,10.10
2010,05,08,08,35,10.10
2010,05,08,08,36,10.10
2010,05,08,08,37,10.10
2010,05,08,08,38,10.20
2010,05,08,08,39,10.20
2010,05,08,08,40,10.20
2010,05,08,08,41,10.30
2010,05,08,08,42,10.30
2010,05,08,08,43,10.30
2010,05,08,08,44,10.30
2010,05,08,08,45,10.40
2010,05,08,08,46,10.40
2010,05,08,08,47,10.40
2010,05,08,08,48,10.40
2010,05,08,08,49,10.60
2010,05,08,08,50,10.60
2010,05,08,08,51,10.60
2010,05,08,08,52,10.60
2010,05,08,08,53,10.60
2010,05,08,08,54,10.60
2010,05,08,08,55,10.60
2010,05,08,08,56,10.60
2010,05,08,08,57,10.60
2010,05,08,08,58,10.50
2010,05,08,08,59,10.50
2010,05,08,09,00,10.60
2010,05,08,09,01,10.60
2010,05,08,09,02,10.70
2010,05,08,09,03,10.70
2010,05,08,09,04,10.80
2010,05,08,09,05,10.80
2010,05,08,09,06,10.80
2010,05,08,09,07,10.80
2010,05,08,09,08,10.80
2010,05,08,09,09,10.80
2010,05,08,09,10,10.90
2010,05,08,09,11,10.90
2010,05,08,09,12,11.00
2010,05,08,09,13,11.10
2010,05,08,09,14,11.10
2010,05,08,09,15,11.10
2010,05,08,09,16,11.10
2010,05,08,09,17,11.10
2010,05,08,09,18,11.20
2010,05,08,09,19,11.30
2010,05,08,09,20,11.30
2010,05,08,09,21,11.30
2010,05,08,09,22,11.30
2010,05,08,09,23,11.20
2010,05,08,09,24,11.20
2010,05,08,09,25,11.20
2010,05,08,09,26,11.20
2010,05,08,09,27,11.20
2010,05,08,09,28,11.20
2010,05,08,09,29,11.30
2010,05,08,09,30,11.40
2010,05,08,09,31,11.40
2010,05,08,09,32,11.50
2010,05,08,09,33,11.60
2010,05,08,09,34,11.60
2010,05,08,09,35,11.60
2010,05,08,09,36,11.60
2010,05,08,09,37,11.60
2010,05,08,09,38,11.60
2010,05,08,09,39,11.60
2010,05,08,09,40,11.50
2010,05,08,09,41,11.40
2010,05,08,09,42,11.30
2010,05,08,09,43,11.20
2010,05,08,09,44,11.10
2010,05,08,09,45,11.10
2010,05,08,09,46,11.10
2010,05,08,09,47,11.10
2010,05,08,09,48,11.10
2010,05,08,09,49,11.10
2010,05,08,09,50,11.10
2010,05,08,09,51,11.10
2010,05,08,09,52,11.00
2010,05,08,09,53,11.00
2010,05,08,09,54,11.10
2010,05,08,09,55,11.20
2010,05,08,09,56,11.20
2010,05,08,09,57,11.30
2010,05,08,09,58,11.30
2010,05,08,09,59,11.30
2010,05,08,10,00,11.40
2010,05,08,10,01,11.40
2010,05,08,10,02,11.40
2010,05,08,10,03,11.50
2010,05,08,10,04,11.60
2010,05,08,10,05,11.60
2010,05,08,10,06,11.60
2010,05,08,10,07,11.60
2010,05,08,10,08,11.60
2010,05,08,10,09,11.70
2010,05,08,10,10,11.80
2010,05,08,10,11,11.70
2010,05,08,10,12,11.70
2010,05,08,10,13,11.80
2010,05,08,10,14,11.70
2010,05,08,10,15,11.80
2010,05,08,10,16,11.80
2010,05,08,10,17,11.80
2010,05,08,10,18,11.80
2010,05,08,10,19,11.80
2010,05,08,10,20,11.80
2010,05,08,10,21,11.90
2010,05,08,10,22,11.80
2010,05,08,10,23,11.80
2010,05,08,10,24,11.90
2010,05,08,10,25,11.90
2010,05,08,10,26,11.90
2010,05,08,10,27,12.00
2010,05,08,10,28,12.00
2010,05,08,10,29,12.00
2010,05,08,10,30,11.90
2010,05,08,10,31,11.90
2010,05,08,10,32,12.00
2010,05,08,10,33,12.10
2010,05,08,10,34,12.10
2010,05,08,10,35,12.10
2010,05,08,10,36,12.20
2010,05,08,10,37,12.30
2010,05,08,10,38,12.30
2010,05,08,10,39,12.30
2010,05,08,10,40,12.30
2010,05,08,10,41,12.30
2010,05,08,10,42,12.40
2010,05,08,10,43,12.50
2010,05,08,10,44,12.60
2010,05,08,10,45,12.60
2010,05,08,10,46,12.70
2010,05,08,10,47,12.70
2010,05,08,10,48,12.70
2010,05,08,10,49,12.60
2010,05,08,10,50,12.50
2010,05,08,10,51,12.40
2010,05,08,10,52,12.40
2010,05,08,10,53,12.30
2010,05,08,10,54,12.30
2010,05,08,10,55,12.30
2010,05,08,10,56,12.40
2010,05,08,10,57,12.40
2010,05,08,10,58,12.40
2010,05,08,10,59,12.40
2010,05,08,11,00,12.50
2010,05,08,11,01,12.50
2010,05,08,11,02,12.50
2010,05,08,11,03,12.50
2010,05,08,11,04,12.50
2010,05,08,11,05,12.50
2010,05,08,11,06,12.60
2010,05,08,11,07,12.60
2010,05,08,11,08,12.50
2010,05,08,11,09,12.50
2010,05,08,11,10,12.50
2010,05,08,11,11,12.60
2010,05,08,11,12,12.60
2010,05,08,11,13,12.60
2010,05,08,11,14,12.70
2010,05,08,11,15,12.80
2010,05,08,11,16,12.80
2010,05,08,11,17,12.80
2010,05,08,11,18,12.80
2010,05,08,11,19,12.90
2010,05,08,11,20,13.00
2010,05,08,11,21,13.00
2010,05,08,11,22,13.00
2010,05,08,11,23,13.00
2010,05,08,11,24,12.90
2010,05,08,11,25,12.90
2010,05,08,11,26,12.80
2010,05,08,11,27,12.80
2010,05,08,11,28,12.80
2010,05,08,11,29,12.80
2010,05,08,11,30,12.80
2010,05,08,11,31,12.80
2010,05,08,11,32,12.90
2010,05,08,11,33,13.00
2010,05,08,11,34,13.00
2010,05,08,11,35,13.10
2010,05,08,11,36,13.10
2010,05,08,11,37,13.10
2010,05,08,11,38,13.10
2010,05,08,11,39,13.10
2010,05,08,11,40,13.00
2010,05,08,11,41,13.00
2010,05,08,11,42,13.00
2010,05,08,11,43,13.10
2010,05,08,11,44,13.10
2010,05,08,11,45,13.10
2010,05,08,11,46,13.10
2010,05,08,11,47,13.10
2010,05,08,11,48,13.00
2010,05,08,11,49,13.00
2010,05,08,11,50,12.90
2010,05,08,11,51,12.90
2010,05,08,11,52,12.80
2010,05,08,11,53,12.90
2010,05,08,11,54,13.00
2010,05,08,11,55,13.00
2010,05,08,11,56,13.10
2010,05,08,11,57,13.20
2010,05,08,11,58,13.20
2010,05,08,11,59,13.30
2010,05,08,12,00,13.40
2010,05,08,12,01,13.40
2010,05,08,12,02,13.40
2010,05,08,12,03,13.40
2010,05,08,12,04,13.40
2010,05,08,12,05,13.30
2010,05,08,12,06,13.30
2010,05,08,12,07,13.40
2010,05,08,12,08,13.40
2010,05,08,12,09,13.40
2010,05,08,12,10,13.30
2010,05,08,12,11,13.40
2010,05,08,12,12,13.40
2010,05,08,12,13,13.50
2010,05,08,12,14,13.50
2010,05,08,12,15,13.40
2010,05,08,12,16,13.40
2010,05,08,12,17,13.30
2010,05,08,12,18,13.40
2010,05,08,12,19,13.50
2010,05,08,12,20,13.50
2010,05,08,12,21,13.50
2010,05,08,12,22,13.40
2010,05,08,12,23,13.30
2010,05,08,12,24,13.30
2010,05,08,12,25,13.20
2010,05,08,12,26,13.10
2010,05,08,12,27,13.10
2010,05,08,12,28,13.10
2010,05,08,12,29,13.10
2010,05,08,12,30,13.20
2010,05,08,12,31,13.10
2010,05,08,12,32,13.10
2010,05,08,12,33,13.10
2010,05,08,12,34,13.00
2010,05,08,12,35,12.90
2010,05,08,12,36,12.90
2010,05,08,12,37,12.90
2010,05,08,12,38,12.90
2010,05,08,12,39,12.90
2010,05,08,12,40,13.00
2010,05,08,12,41,13.00
2010,05,08,12,42,13.30
2010,05,08,12,43,13.40
2010,05,08,12,44,13.50
2010,05,08,12,45,13.60
2010,05,08,12,46,13.70
2010,05,08,12,47,13.90
2010,05,08,12,48,13.90
2010,05,08,12,49,13.80
2010,05,08,12,50,13.80
2010,05,08,12,51,13.80
2010,05,08,12,52,13.80
2010,05,08,12,53,13.70
2010,05,08,12,54,13.80
2010,05,08,12,55,13.70
2010,05,08,12,56,13.60
2010,05,08,12,57,13.60
2010,05,08,12,58,13.60
2010,05,08,12,59,13.60
2010,05,08,13,00,13.60
2010,05,08,13,01,13.60
2010,05,08,13,02,13.60
2010,05,08,13,03,13.70
2010,05,08,13,04,13.70
2010,05,08,13,05,13.70
2010,05,08,13,06,13.70
2010,05,08,13,07,13.70
2010,05,08,13,08,13.80
2010,05,08,13,09,13.90
2010,05,08,13,10,14.00
2010,05,08,13,11,14.10
2010,05,08,13,12,14.10
2010,05,08,13,13,14.10
2010,05,08,13,14,14.10
2010,05,08,13,15,14.10
2010,05,08,13,16,14.10
2010,05,08,13,17,14.20
2010,05,08,13,18,14.20
2010,05,08,13,19,14.20
2010,05,08,13,20,14.30
2010,05,08,13,21,14.40
2010,05,08,13,22,14.50
2010,05,08,13,23,14.60
2010,05,08,13,24,14.80
2010,05,08,13,25,14.90
2010,05,08,13,26,14.90
2010,05,08,13,27,14.90
2010,05,08,13,28,14.90
2010,05,08,13,29,15.00
2010,05,08,13,30,15.00
2010,05,08,13,31,15.00
2010,05,08,13,32,15.00
2010,05,08,13,33,15.00
2010,05,08,13,34,15.00
2010,05,08,13,35,15.00
2010,05,08,13,36,15.00
2010,05,08,13,37,15.00
2010,05,08,13,38,15.10
2010,05,08,13,39,15.00
2010,05,08,13,40,15.00
2010,05,08,13,41,15.00
2010,05,08,13,42,15.00
2010,05,08,13,43,15.00
2010,05,08,13,44,15.00
2010,05,08,13,45,14.90
2010,05,08,13,46,14.90
2010,05,08,13,47,14.90
2010,05,08,13,48,14.80
2010,05,08,13,49,14.80
2010,05,08,13,50,14.80
2010,05,08,13,51,14.80
2010,05,08,13,52,14.80
2010,05,08,13,53,14.90
2010,05,08,13,54,15.00
2010,05,08,13,55,15.00
2010,05,08,13,56,15.00
2010,05,08,13,57,15.00
2010,05,08,13,58,15.10
2010,05,08,13,59,15.10
2010,05,08,14,00,15.20
2010,05,08,14,01,15.30
2010,05,08,14,02,15.30
2010,05,08,14,03,15.20
2010,05,08,14,04,15.10
2010,05,08,14,05,15.10
2010,05,08,14,06,15.00
2010,05,08,14,07,15.10
2010,05,08,14,08,15.10
2010,05,08,14,09,15.20
2010,05,08,14,10,15.30
2010,05,08,14,11,15.40
2010,05,08,14,12,15.60
2010,05,08,14,13,15.70
2010,05,08,14,14,15.70
2010,05,08,14,15,15.80
2010,05,08,14,16,15.80
2010,05,08,14,17,15.80
2010,05,08,14,18,15.70
2010,05,08,14,19,15.70
2010,05,08,14,20,15.60
2010,05,08,14,21,15.60
2010,05,08,14,22,15.60
2010,05,08,14,23,15.50
2010,05,08,14,24,15.50
2010,05,08,14,25,15.50
2010,05,08,14,26,15.60
2010,05,08,14,27,15.60
2010,05,08,14,28,15.70
2010,05,08,14,29,15.70
2010,05,08,14,30,15.60
2010,05,08,14,31,15.70
2010,05,08,14,32,15.70
2010,05,08,14,33,15.70
2010,05,08,14,34,15.60
2010,05,08,14,35,15.50
2010,05,08,14,36,15.60
2010,05,08,14,37,15.60
2010,05,08,14,38,15.50
2010,05,08,14,39,15.50
2010,05,08,14,40,15.50
2010,05,08,14,41,15.60
2010,05,08,14,42,15.50
2010,05,08,14,43,15.40
2010,05,08,14,44,15.30
2010,05,08,14,45,15.30
2010,05,08,14,46,15.30
2010,05,08,14,47,15.20
2010,05,08,14,48,15.10
2010,05,08,14,49,15.10
2010,05,08,14,50,15.10
2010,05,08,14,51,15.10
2010,05,08,14,52,15.10
2010,05,08,14,53,15.10
2010,05,08,14,54,15.20
2010,05,08,14,55,15.20
2010,05,08,14,56,15.30
2010,05,08,14,57,15.40
2010,05,08,14,58,15.60
2010,05,08,14,59,15.60
2010,05,08,15,00,15.70
2010,05,08,15,01,15.70
2010,05,08,15,02,15.70
2010,05,08,15,03,15.70
2010,05,08,15,04,15.70
2010,05,08,15,05,15.70
2010,05,08,15,06,15.80
2010,05,08,15,07,15.80
2010,05,08,15,08,15.80
2010,05,08,15,09,15.80
2010,05,08,15,10,15.80
2010,05,08,15,11,15.80
2010,05,08,15,12,15.80
2010,05,08,15,13,15.80
2010,05,08,15,14,15.90
2010,05,08,15,15,15.90
2010,05,08,15,16,16.00
2010,05,08,15,17,16.10
2010,05,08,15,18,16.20
2010,05,08,15,19,16.30
2010,05,08,15,20,16.40
2010,05,08,15,21,16.40
2010,05,08,15,22,16.50
2010,05,08,15,23,16.50
2010,05,08,15,24,16.40
2010,05,08,15,25,16.50
2010,05,08,15,26,16.60
2010,05,08,15,27,16.60
2010,05,08,15,28,16.50
2010,05,08,15,29,16.40
2010,05,08,15,30,16.40
2010,05,08,15,31,16.40
2010,05,08,15,32,16.40
2010,05,08,15,33,16.40
2010,05,08,15,34,16.40
2010,05,08,15,35,16.40
2010,05,08,15,36,16.30
2010,05,08,15,37,16.20
2010,05,08,15,38,16.10
2010,05,08,15,39,16.00
2010,05,08,15,40,15.90
2010,05,08,15,41,15.80
2010,05,08,15,42,15.80
2010,05,08,15,43,15.70
2010,05,08,15,44,15.70
2010,05,08,15,45,15.70
2010,05,08,15,46,15.70
2010,05,08,15,47,15.80
2010,05,08,15,48,15.70
2010,05,08,15,49,15.70
2010,05,08,15,50,15.60
2010,05,08,15,51,15.60
2010,05,08,15,52,15.60
2010,05,08,15,53,15.60
2010,05,08,15,54,15.70
2010,05,08,15,55,15.70
2010,05,08,15,56,15.70
2010,05,08,15,57,15.60
2010,05,08,15,58,15.60
2010,05,08,15,59,15.60
2010,05,08,16,00,15.60
2010,05,08,16,01,15.60
2010,05,08,16,02,15.60
2010,05,08,16,03,15.70
2010,05,08,16,04,15.80
2010,05,08,16,05,15.80
2010,05,08,16,06,15.80
2010,05,08,16,07,15.80
2010,05,08,16,08,15.80
2010,05,08,16,09,15.80
2010,05,08,16,10,15.80
2010,05,08,16,11,15.90
2010,05,08,16,12,15.90
2010,05,08,16,13,16.00
2010,05,08,16,14,16.10
2010,05,08,16,15,16.10
2010,05,08,16,16,16.10
2010,05,08,16,17,16.10
2010,05,08,16,18,16.10
2010,05,08,16,19,16.10
2010,05,08,16,20,16.10
2010,05,08,16,21,16.10
2010,05,08,16,22,16.10
2010,05,08,16,23,16.10
2010,05,08,16,24,16.10
2010,05,08,16,25,16.10
2010,05,08,16,26,16.10
2010,05,08,16,27,16.10
2010,05,08,16,28,16.10
2010,05,08,16,29,16.00
2010,05,08,16,30,15.90
2010,05,08,16,31,15.90
2010,05,08,16,32,15.90
2010,05,08,16,33,15.90
2010,05,08,16,34,16.00
2010,05,08,16,35,16.10
2010,05,08,16,36,16.10
2010,05,08,16,37,16.10
2010,05,08,16,38,16.10
2010,05,08,16,39,16.10
2010,05,08,16,40,16.10
2010,05,08,16,41,16.00
2010,05,08,16,42,15.90
2010,05,08,16,43,15.80
2010,05,08,16,44,15.80
2010,05,08,16,45,15.80
2010,05,08,16,46,15.80
2010,05,08,16,47,15.80
2010,05,08,16,48,15.70
2010,05,08,16,49,15.70
2010,05,08,16,50,15.70
2010,05,08,16,51,15.70
2010,05,08,16,52,15.70
2010,05,08,16,53,15.70
2010,05,08,16,54,15.70
2010,05,08,16,55,15.70
2010,05,08,16,56,15.80
2010,05,08,16,57,15.90
2010,05,08,16,58,16.00
2010,05,08,16,59,16.10
2010,05,08,17,00,16.10
2010,05,08,17,01,16.10
2010,05,08,17,02,16.10
2010,05,08,17,03,16.10
2010,05,08,17,04,16.20
2010,05,08,17,05,16.20
2010,05,08,17,06,16.20
2010,05,08,17,07,16.10
2010,05,08,17,08,16.10
2010,05,08,17,09,16.10
2010,05,08,17,10,16.10
2010,05,08,17,11,16.10
2010,05,08,17,12,16.10
2010,05,08,17,13,16.00
2010,05,08,17,14,15.90
2010,05,08,17,15,15.90
2010,05,08,17,16,15.80
2010,05,08,17,17,15.70
2010,05,08,17,18,15.60
2010,05,08,17,19,15.50
2010,05,08,17,20,15.30
2010,05,08,17,21,15.10
2010,05,08,17,22,15.00
2010,05,08,17,23,15.00
2010,05,08,17,24,14.90
2010,05,08,17,25,14.80
2010,05,08,17,26,14.70
2010,05,08,17,27,14.60
2010,05,08,17,28,14.60
2010,05,08,17,29,14.60
2010,05,08,17,30,14.60
2010,05,08,17,31,14.60
2010,05,08,17,32,14.60
2010,05,08,17,33,14.70
2010,05,08,17,34,14.70
2010,05,08,17,35,14.80
2010,05,08,17,36,14.80
2010,05,08,17,37,14.90
2010,05,08,17,38,15.00
2010,05,08,17,39,15.10
2010,05,08,17,40,15.20
2010,05,08,17,41,15.20
2010,05,08,17,42,15.30